Погода Ханты-Мансийск

Погода Ханты-Мансийск : погода сейчас, прогноз погоды и архив. Всё, что Вы хотите узнать о погоде Ханты-Мансийск!

Хотите узнать прогноз погоды Ханты-Мансийск? Тогда Вам сюда: Погода Ханты-Мансийск

Поиск расширенной информации на нашем сайте:

Полезная информация:

Другие новости

Новости СМИ2

Главная страница сайта

Новости сайта

03.07.2017

Напоминаем, что на нашем специализированном сайте Метеоцентр.Азия вы можете получить высокодетализированные автоматические прогнозы погоды по пунктам России, СНГ и мира в авиационном формате (включающие направление и скорость ветра, видимость, явления погоды, количество и форму облачности, нижнюю и верхнюю границу облачности).

Рекомендуем:

Погода Ханты-Мансийск - сегодня

Время (UTC), дата Ветер
(°,м/с) 
Видим.   Явления Облачность Т
(°С)
Тd
(°С)
f(%) Тe
(°С)
Pmin
(гПа)
dP
(гПа)
Po
(мм)
O2
(г/м3)
Тmin Tmax R s Состояние
почвы
09 15.09.19 220 (ЮЗ) 10 км    10/0 верхняя 
[Cs]
+21.7 +10.4 49 +23  1005.8  -1  751  278           
12 15.09.19 220 (ЮЗ) 10 км    10/0 средняя, верхняя 
[As trans|Cc]
+21.1 +9.5 47 +22  1005.4  -0.4  750  279           
15 15.09.19 190 (Ю) 10 км    5/0 средняя, верхняя 
[Ac lent|Cc]
+15.7 +9.3 66 +17  1004.9  -0.5  750  284    +22.3       
18 15.09.19 150 (ЮВ) 10 км    6/0 средняя 
[Ac trans]
+14.1 +9.1 72 +15  1003.5  -1.5  749  285           
21 15.09.19 160 (Ю) 10 км  {дождь}  9/9 1500 м 
[Sc]
+14 +8.6 70 +15  1002.2  -1.3  748  285           
00 16.09.19 200 (Ю) 10 км  {дождь}  4/0 верхняя 
[Ci fib]
+12.2 +8.5 78 +13  1002.8  0.6  748  287           
03 16.09.19 220 (ЮЗ) 10 км    3/0 верхняя 
[Ci fib]
+12.4 +9.4 82 +13  1003.4  0.6  749  287  +10.6    0.0     
06 16.09.19 210 (ЮЗ) 10 км  в посл. час дождь  10/8 300 м средняя 
[Sc|As op]
+13.9 +10.6 80 +16  1003.3  0.1  749  285           
09 16.09.19 210 (ЮЗ) 10 км  в посл. час дождь{ливн. осадки}  10/5 300 м кучево-дожд., средняя 
[Cb cap|As trans]
+13 +11.2 89 +16  1002.5  -0.9  748  286           
12 16.09.19 230 (ЮЗ) 10 км  слаб. ливневой дождь  10/6 300 м кучево-дожд., средняя 
[Cb cap|As trans]
+11.4 +10.1 92 +13  1002.1  -0.4  748  287           
15 16.09.19 200 (Ю) 10 км  слаб. ливневой дождь  10/10 600 м кучево-дожд. 
[Cb cap]
+9.6 +8.1 90 +11  1002.1  748  290    +14.5     
18 16.09.19 160 (Ю) 10 км  {ливн. осадки}  10/10 600 м кучево-дожд. 
[Cb cap]
+8.8 +7.4 91 +10  1001.6  -0.5  747  290           
21 16.09.19 200 (Ю) 4000 м  дымка  ясно 
+7.7 +6.8 94 +9  1000.9  -0.7  747  291           
00 17.09.19 160 (Ю) 0500 м  туман  ?/?  
+6.7 +5.9 95 +7  999.9  -1  746  292           
03 17.09.19 170 (Ю) 0500 м  туман  ?/?  
+6.7 +6 95 +7  999.3  -0.6  745  292  +6.1         
06 17.09.19 160 (Ю) 10 км  {туман}  10/8 300 м кучево-дожд., верхняя 
[Cb cap|Ci sp]
+8.2 +7.5 95 +8  998.8  -0.5  745  290           
09 17.09.19 180 (Ю) 10 км  слаб. ливневой дождь  10/10 300 м кучево-дожд. 
[Cb cap]
+8.8 +7 88 +9  998.7  745  290           
12 17.09.19 160 (Ю) 10 км  слаб. ливневой дождь  10/10 300 м кучево-дожд. 
[Cb cap]
+8.7 +7.4 92 +9  998.4  -0.3  745  290           
15 17.09.19 190 (Ю) 10 км  слаб. ливневой дождь  10/10 300 м кучево-дожд. 
[Cb cap]
+8.7 +7.7 93 +9  998.1  -0.2  745  289    +9.5     
18 17.09.19 230 (ЮЗ) 10 км  в посл. час ливневой дождь  10/10 300 м кучево-дожд. 
[Cb cap]
+8.7 +7.6 93 +10  998.9  0.8  745  290           
21 17.09.19 160 (Ю) 10 км    10/10 300 м кучево-дожд. 
[Cb cap]
+8.7 +7.8 94 +9  999.3  0.4  746  290           
00 18.09.19 190 (Ю) 10 км    9/8 600 м кучево-дожд., средняя 
[Cb cap|As trans]
+8.4 +7.3 93 +8  999.8  0.5  746  290           
03 18.09.19 180 (Ю) 10 км    10/0 средняя 
[Ac As]
+7.8 +6.9 94 +7  1000  0.1  746  291  +7.4       
06 18.09.19 150 (ЮВ) 10 км  в посл. час ливневой дождь  10/10 600 м кучево-дожд. 
[Cb cap]
+10.3 +8.3 87 +9  999  -0.9  745  288           
09 18.09.19 190 (Ю) 10 км    10/3 600 м средняя 
[Sc|Ac As]
+14.2 +8.5 69 +14  998.5  -0.4  745  284           
Время (UTC), дата Ветер
(°,м/с) 
Видим.   Явления Облачность Т
(°С)
Тd
(°С)
f(%) Тe
(°С)
Pmin
(гПа)
dP
(гПа)
Po
(мм)
O2
(г/м3)
Тmin Tmax R s Состояние
почвы

Для получения пояснительной информации подведите курсор к названию столбца.

ПОГОДА Ханты-Мансийск - архив

Всё, что Вы хотите узнать о погоде Ханты-Мансийск - удобно и подробно!

Выберите нужную дату (начиная с 1 января 2018* года) и нажмите кнопку "Найти".
Будут отображены архивные сводки погоды по пункту Ханты-Мансийск, начиная с указанной даты.


Отображать данные в формате CSV (для использования в таблицах Excel)


Внимание! Наш архив погоды предназначен исключительно для личного некоммерческого использования в познавательных целях. Если Вам необходимы официальные справки о состоянии погоды (для производственных, юридических, коммерческих и т.п. целей), обращайтесь в органы Росгидромета.

*Примечание: данная дата относится к архиву по метеостанциям СССР (Россия, СНГ, Балтия).
Архив по метеостанциям Зарубежной Европы и Азии (кроме Китая) хранится 10 дней, по другим регионам земного шара (Китай, Африка, Америка, Австралия, Океания) - 1 день.

Ханты-Мансийск - район местоположения метеостанции


Название, широта, долгота, высота метеостанции:
Ханты-Мансийск 61°ш. 69°д. 46 м над ур. моря [Российская Федерация]

Дополнительная информация

В oтличие oт бoльшинства пoгoдных сайтoв мы публикуем пoдрoбную метеoинфoрмацию в детальнoм прoфессиoнальнoм фoрмате.

Характеристики температуры и влажнoсти вoздуха измеряются на высoте 2 м в тени вдали oт зданий и деревьев.
Скoрoсть ветра измеряется на высoте 10 м (на урoвне рoста челoвека скoрoсть ветра ниже в 1.5-2 раза). Если метеoстанция нахoдится в гoрoде или в лесу, тo скoрoсть ветра занижена на 2-4 м/с пo сравнению с oткрытым местoм. Скoрoсть ветра над акватoриями крупных рек и oзёр, а также на вершинах хoлмoв на 2-5 м/с выше, чем в oбычных услoвиях.
Атмoсфернoе давление в разных тoчках местнoсти мoжет значительнo oтличаться oт давления на метеoстанции, в зависимoсти oт услoвий рельефа (при пoдъёме на 10 м давление пoнижается примернo на 1 мм рт.ст.).